TimeCDT,TemperatureF,Dew PointF,Humidity,Sea Level PressureIn,VisibilityMPH,Wind Direction,Wind SpeedMPH,Gust SpeedMPH,PrecipitationIn,Events,Conditions,WindDirDegrees,DateUTC
12:35 AM,60.8,47.5,62,29.64,10.0,South,13.8,17.3,N/A,,Mostly Cloudy,180,2012-10-17 05:35:00
12:55 AM,60.3,47.7,63,29.64,10.0,South,11.5,-,N/A,,Scattered Clouds,180,2012-10-17 05:55:00
1:35 AM,59.4,48.2,67,29.65,10.0,South,11.5,-,N/A,,Clear,180,2012-10-17 06:35:00
1:55 AM,59.4,48.4,67,29.65,10.0,South,13.8,17.3,N/A,,Scattered Clouds,180,2012-10-17 06:55:00
2:15 AM,59.2,48.6,68,29.65,10.0,South,12.7,-,N/A,,Scattered Clouds,180,2012-10-17 07:15:00
2:55 AM,58.3,48.6,70,29.63,10.0,South,11.5,-,N/A,,Clear,180,2012-10-17 07:55:00
3:15 AM,57.6,48.6,72,29.63,10.0,South,11.5,-,N/A,,Clear,180,2012-10-17 08:15:00
3:35 AM,57.0,48.6,73,29.63,10.0,South,9.2,-,N/A,,Clear,190,2012-10-17 08:35:00
3:55 AM,57.2,48.7,73,29.63,10.0,South,10.4,-,N/A,,Clear,190,2012-10-17 08:55:00
4:15 AM,57.2,48.7,73,29.63,10.0,South,11.5,-,N/A,,Clear,190,2012-10-17 09:15:00
4:35 AM,57.0,48.7,74,29.63,10.0,South,11.5,-,N/A,,Clear,190,2012-10-17 09:35:00
4:55 AM,56.7,48.6,74,29.63,10.0,South,10.4,-,N/A,,Clear,190,2012-10-17 09:55:00
5:15 AM,56.5,48.4,74,29.62,10.0,South,11.5,-,N/A,,Clear,190,2012-10-17 10:15:00
5:35 AM,56.5,48.0,73,29.62,10.0,South,11.5,-,N/A,,Clear,190,2012-10-17 10:35:00
5:55 AM,56.5,47.5,72,29.62,10.0,South,11.5,-,N/A,,Clear,190,2012-10-17 10:55:00
6:15 AM,56.3,47.3,72,29.62,10.0,South,11.5,-,N/A,,Clear,180,2012-10-17 11:15:00
6:35 AM,56.1,46.8,71,29.63,10.0,South,11.5,-,N/A,,Clear,190,2012-10-17 11:35:00
6:55 AM,55.9,46.4,70,29.63,10.0,SSW,11.5,20.7,N/A,,Clear,200,2012-10-17 11:55:00
7:15 AM,55.8,46.2,70,29.63,10.0,South,12.7,-,N/A,,Clear,190,2012-10-17 12:15:00
7:35 AM,55.8,46.2,70,29.62,10.0,South,12.7,-,N/A,,Clear,190,2012-10-17 12:35:00
7:55 AM,56.5,46.4,69,29.62,10.0,South,11.5,-,N/A,,Clear,190,2012-10-17 12:55:00
8:15 AM,57.6,46.6,67,29.63,10.0,South,13.8,-,N/A,,Clear,190,2012-10-17 13:15:00
8:35 AM,58.8,47.1,65,29.62,10.0,South,15.0,21.9,N/A,,Clear,190,2012-10-17 13:35:00
8:55 AM,60.1,47.7,64,29.62,10.0,SSW,17.3,25.3,N/A,,Clear,200,2012-10-17 13:55:00
9:15 AM,61.2,48.2,62,29.62,10.0,South,21.9,26.5,N/A,,Clear,190,2012-10-17 14:15:00
9:35 AM,62.2,48.6,61,29.61,10.0,SSW,16.1,25.3,N/A,,Clear,200,2012-10-17 14:35:00
9:55 AM,62.8,48.4,59,29.61,10.0,SSW,17.3,25.3,N/A,,Clear,200,2012-10-17 14:55:00
10:15 AM,64.2,48.2,56,29.60,10.0,South,16.1,-,N/A,,Clear,190,2012-10-17 15:15:00
10:35 AM,66.2,47.7,51,29.59,10.0,South,16.1,-,N/A,,Clear,190,2012-10-17 15:35:00
10:55 AM,67.5,46.8,47,29.59,10.0,South,20.7,26.5,N/A,,Clear,190,2012-10-17 15:55:00
11:15 AM,67.8,46.0,46,29.58,10.0,SSW,19.6,27.6,N/A,,Clear,200,2012-10-17 16:15:00
11:35 AM,68.5,46.2,45,29.58,10.0,South,19.6,27.6,N/A,,Clear,190,2012-10-17 16:35:00
11:55 AM,68.5,46.6,45,29.58,10.0,South,18.4,26.5,N/A,,Clear,190,2012-10-17 16:55:00
12:15 PM,70.3,47.5,44,29.57,10.0,South,20.7,27.6,N/A,,Scattered Clouds,190,2012-10-17 17:15:00
12:35 PM,70.0,48.4,46,29.57,10.0,South,24.2,32.2,N/A,,Mostly Cloudy,190,2012-10-17 17:35:00
12:55 PM,69.3,48.7,48,29.55,10.0,South,21.9,32.2,N/A,,Overcast,190,2012-10-17 17:55:00
1:15 PM,68.7,49.1,50,29.54,10.0,SSW,23.0,32.2,N/A,,Overcast,200,2012-10-17 18:15:00
1:55 PM,68.0,49.5,51,29.54,10.0,South,18.4,27.6,N/A,,Overcast,190,2012-10-17 18:55:00
2:15 PM,67.3,49.3,52,29.53,10.0,SSW,16.1,26.5,N/A,,Overcast,200,2012-10-17 19:15:00
2:35 PM,67.1,49.3,53,29.52,10.0,South,16.1,23.0,N/A,,Overcast,180,2012-10-17 19:35:00
2:55 PM,66.7,49.3,53,29.51,10.0,South,16.1,25.3,N/A,,Overcast,190,2012-10-17 19:55:00
3:15 PM,66.4,49.1,54,29.51,10.0,SSW,18.4,29.9,N/A,,Overcast,200,2012-10-17 20:15:00
3:35 PM,66.0,49.1,54,29.51,10.0,South,11.5,17.3,N/A,,Overcast,190,2012-10-17 20:35:00
4:15 PM,66.2,49.3,54,29.49,10.0,South,15.0,24.2,N/A,,Overcast,180,2012-10-17 21:15:00
4:35 PM,66.2,49.1,54,29.50,10.0,SSW,24.2,32.2,N/A,,Overcast,200,2012-10-17 21:35:00
4:55 PM,64.6,50.0,59,29.51,5.0,South,21.9,38.0,N/A,,Overcast,190,2012-10-17 21:55:00
5:15 PM,60.1,54.1,81,29.52,3.0,South,17.3,20.7,N/A,,Overcast,170,2012-10-17 22:15:00
5:35 PM,58.1,55.4,91,29.51,4.0,SE,12.7,-,N/A,,Overcast,140,2012-10-17 22:35:00
5:55 PM,57.6,55.0,91,29.51,10.0,SE,9.2,-,N/A,,Overcast,140,2012-10-17 22:55:00
6:15 PM,57.4,54.7,91,29.50,10.0,SE,10.4,-,N/A,,Overcast,130,2012-10-17 23:15:00
6:35 PM,57.2,54.5,91,29.49,10.0,SE,12.7,-,N/A,,Overcast,140,2012-10-17 23:35:00
6:55 PM,57.2,54.5,91,29.47,10.0,SE,11.5,23.0,N/A,,Overcast,130,2012-10-17 23:55:00
7:15 PM,57.6,54.3,89,29.46,10.0,SE,13.8,19.6,N/A,,Overcast,130,2012-10-18 00:15:00
7:35 PM,57.9,54.5,88,29.45,10.0,SE,12.7,-,N/A,,Overcast,130,2012-10-18 00:35:00
7:55 PM,57.9,54.5,88,29.43,7.0,SE,13.8,-,N/A,,Overcast,140,2012-10-18 00:55:00
8:15 PM,57.9,54.7,89,29.42,10.0,SE,16.1,-,N/A,,Overcast,130,2012-10-18 01:15:00
8:35 PM,58.3,54.7,88,29.40,10.0,SE,13.8,-,N/A,,Mostly Cloudy,140,2012-10-18 01:35:00
8:55 PM,58.6,54.5,86,29.40,10.0,SE,15.0,19.6,N/A,,Mostly Cloudy,140,2012-10-18 01:55:00
9:15 PM,58.6,54.5,86,29.38,10.0,SE,13.8,-,N/A,,Mostly Cloudy,140,2012-10-18 02:15:00
9:35 PM,58.8,54.5,86,29.41,10.0,SSE,15.0,-,N/A,,Mostly Cloudy,160,2012-10-18 02:35:00
9:55 PM,58.5,54.7,87,29.43,7.0,SSE,16.1,20.7,N/A,,Overcast,160,2012-10-18 02:55:00
10:15 PM,57.9,55.2,91,29.43,5.0,South,15.0,19.6,N/A,,Overcast,170,2012-10-18 03:15:00
10:35 PM,57.4,55.4,93,29.43,5.0,South,13.8,23.0,N/A,,Overcast,170,2012-10-18 03:35:00
10:55 PM,57.2,55.6,94,29.42,7.0,SSE,16.1,23.0,N/A,,Overcast,160,2012-10-18 03:55:00
11:15 PM,57.2,55.6,94,29.40,7.0,South,17.3,-,N/A,,Overcast,170,2012-10-18 04:15:00
11:35 PM,57.4,55.8,94,29.38,7.0,South,19.6,26.5,N/A,,Overcast,170,2012-10-18 04:35:00
11:55 PM,57.2,55.6,94,29.38,10.0,South,16.1,23.0,N/A,,Overcast,170,2012-10-18 04:55:00